Hourly Weather Roundup
Issued by NWS Central Illinois

Home | Current Version | Previous Version | Text Only | Print | Product List | Glossary On
Versions: 1 2 3 4 5 6 7 8 9 10 11 12 13 14 15 16 17 18 19 20 21 22 23 24 25 26 27 28 29 30 31 32 33 34 35 36 37 38 39 40 41 42 43 44 45 46 47 48 49 50
000
NZUS43 KILX 241710
HWRILX

AREA WEATHER ROUNDUP
NATIONAL WEATHER SERVICE, LINCOLN IL
1200 PM CDT TUE MAY 24 2016


CITY           SKY/WX    TMP DP  RH WIND       PRES   REMARKS
BLOOMINGTON    SUNNY     83  55  37 S18G26    30.02S HX  82
CHAMPAIGN      SUNNY     85  49  28 S16       30.02F HX  83
DANVILLE         N/A    N/A N/A N/A S12       30.01
DECATUR        SUNNY     82  57  42 S16G25    30.02S HX  82
EFFINGHAM      CLOUDY    80  59  48 S13       30.07F HX  81
FLORA          MOSUNNY   80  58  47 S14       30.07S HX  80
GALESBURG      SUNNY     79  60  52 S8G17     29.97F HX  80
JACKSONVILLE   MOSUNNY   80  60  50 SE8       29.99F HX  81
LACON          SUNNY     79  58  48 SW10      29.98F HX  80
LAWRENCEVILLE  SUNNY     82  57  42 SW16      30.08F HX  82
LITCHFIELD     PTSUNNY   76  58  54 S14       30.03S
$$


CITY           SKY/WX    TMP DP  RH WIND       PRES   REMARKS
LINCOLN        SUNNY     83  59  44 S9G16     30.00S HX  83
MACOMB         SUNNY     81  58  45 S14       30.00S HX  81
MATTOON        SUNNY     79  53  40 S12G23    30.04F
MT CARMEL AP   MOSUNNY   81  54  39 SW10      30.08S HX  80
OLNEY-NOBLE AP PTSUNNY   79  55  44 S7        30.07F
PARIS          SUNNY     83  54  37 S12       30.06F HX  82
PEORIA         SUNNY     81  58  45 S15       29.99F HX  81
PONTIAC        SUNNY     84  51  31 SW15G22   30.00F HX  82
RANTOUL        SUNNY     85  49  28 S16G23    30.02F HX  82
ROBINSON       SUNNY     79  59  51 SW8       30.08F HX  80
SPRINGFIELD    MOSUNNY   80  59  48 SW12      30.01R HX  81
TAYLORVILLE    MOSUNNY   80  57  45 S16       30.02S HX  80
$$

...REGIONAL REPORTS...


CITY           SKY/WX    TMP DP  RH WIND       PRES   REMARKS
CHICAGO O`HARE MOSUNNY   80  54  40 SW15      29.99S HX  80
KANKAKEE       SUNNY    N/A N/A N/A SW12G22   30.02S
MOLINE         PTSUNNY   82  59  45 S10       29.94S HX  82
MOUNT STERLING MOSUNNY   78  61  55 S9        29.98F HX  80
MOUNT VERNON   CLOUDY    75  59  57 S9        30.08S
PITTSFIELD     SUNNY     79  62  57 SW9       30.01S HX  80
QUINCY         MOSUNNY   78  61  55 S8        29.97F HX  80
ROCKFORD       PTSUNNY   81  58  45 S15G21    29.97F HX  81
$$


CITY           SKY/WX    TMP DP  RH WIND       PRES   REMARKS
BURLINGTON     CLOUDY    77  63  61 S13G21    29.96S
CEDAR RAPIDS   CLOUDY    77  65  66 S12G17    29.94R
DES MOINES     CLOUDY    73  63  70 W3        29.92F
KIRKSVILLE     CLOUDY    75  66  73 SW7       29.98R
OTTUMWA        PTSUNNY   78  65  63 S8        29.94R HX  80
ST LOUIS       PTSUNNY   81  60  48 S8        30.01F HX  82
$$


CITY           SKY/WX    TMP DP  RH WIND       PRES   REMARKS
TERRE HAUTE    SUNNY     81  55  40 SW9       30.07F HX  81
EVANSVILLE     CLOUDY    77  56  48 S10       30.10R
INDIANAPOLIS   PTSUNNY   78  52  40 SW7       30.08F
LAFAYETTE      MOSUNNY   80  51  36 SW8G18    30.04F HX  80
MADISON        CLOUDY    74  58  57 SW6       29.95R
MILWAUKEE      MOSUNNY   81  56  42 S12       29.95F HX  81
$$





USA.gov is the U.S. government's official web portal to all federal, state and local government web resources and services.